Showing default

SIGI, 62632

Orbit data source: Space-Track

SIGI, 62632 is a German payload satellite in SSO that was launched on Tue, 14 Jan 2025 UTC via an FALCON 9 launch vehicle from the Air Force Western Test Range (AFWTR). Payload-class satellites include a variety of spacecraft equipped with specific instruments for various scientific and technological missions. These include communications satellites like Starlink; space stations such as the ISS; scientific satellites like the Hubble; Earth observation satellites from companies like Planet Labs, Umbra, and HawkEye 360; GPS; miniature CubeSats for education and research; and military/defense satellites.

Loading next visibility...
Identifier
62632, 2025-009Z
Orbit
SSO
Country
Flag of DEDE / GER
Related business
Manufacturer
REFLEX
Mission
Operational Commercial Communications
Bus & Motor
OMNIFLEX, Unknown motor
Mass
109 kg wet, 109 kg dry
Launch date (UTC)
2025-01-14 (8 months ago)
Launch vehicle
FALCON 9
Launch site
Air Force Western Test Range (AFWTR)
Object type
Payload
Rocket body
Debris
Shape & HBR
Box + 2 Pan, 1.5 m
Radar Cross Section
1.176 m², Medium (>0.1 m² and < 1m²)

Expand to show TLE details & history
Last TLE update: 13 hours ago

TLE from 13 hours ago
0 SIGI
1 62632U 25009Z   25258.53166263  .00005316  00000-0  24474-3 0  9998
2 62632  97.4249 337.3817 0003641 170.8449 189.2853 15.20725101 37005
Epoch: 2025-09-15T12:45Z
TLE epoch observation values (Epoch: 2025-09-15T12:45:35.651Z)
Latitude
-0.00006°
Longitude
151.24819°
Altitude
509.216 km
Speed
7.608 km/s
True Right ascension
22h 29m 31s
True Declination
0° 00' 00"
Sunlit
Object was in full shadow at epoch
Visualization orbit readout
Latitude
Unknown
Longitude
Unknown
Altitude
Unknown
Speed
Unknown
Apparent Right ascension
Unknown
Apparent Declination
Unknown
Sunlit
N/A
Visualization observer readout
Local Sidereal Time
18:07:50
Azimuth
Unknown
Elevation
Unknown
Doppler factor
Unknown
Orbital elements
Apogee altitude
503.122 km
Perigee altitude
498.113 km
Semi-major axis
6,878.755 km
Eccentricity
0.00036
Inclination
97.4249°
RAAN
337.3817°
Arg. of periapsis
170.8449°
True anomaly
189.27857°
Mean anomaly
189.2853°
Eccentric anomaly
189.28194°
Mean motion
3.80433 °/min
Orbital period
94.63 mins
BSTAR
0.00024474
Loading maneuver chart data...
Computing Atmospheric mass density...
Loading historical data...
Loading historical data...
Loading historical data...
Loading historical data...
Loading historical data...
Loading historical data...
Loading historical data...

Documentation

Showing up to 5 results
|